Change the Weather History Date:

Friday, January 25, 2013

  Actual Average Record
Temperature  
Mean Temperature 54 °F 52 °F  
Max Temperature 61 °F 61 °F 80 °F (1974)
Min Temperature 47 °F 43 °F 22 °F (1963)
Degree Days  
Heating Degree Days 11 13  
Month to date heating degree days 176 346  
Since 1 July heating degree days 646 877  
Cooling Degree Days 0 0  
Month to date cooling degree days 12 0  
Year to date cooling degree days 12 0  
Growing Degree Days 2 (Base 50)    
Moisture  
Dew Point 47 °F    
Average Humidity 79    
Maximum Humidity 96    
Minimum Humidity 62    
Precipitation  
Precipitation 0.00 in 0.12 in 1.96 in (2011)
Month to date precipitation 0.21 2.53  
Year to date precipitation 0.21 2.53  
Snow  
Snow 0.00 in - 0.00 in ()
Month to date snowfall 0.0  
Since 1 July snowfall 0.0  
Snow Depth 0.00 in    
Sea Level Pressure  
Sea Level Pressure 30.27 in    
Wind  
Wind Speed 8 mph (NE)    
Max Wind Speed 18 mph    
Max Gust Speed 25 mph    
Visibility 10 miles    
Events      
T = Trace of Precipitation, MM = Missing Value Source: NWS Daily Summary

Daily Weather History Graph

Daily Weather History Graph

Search for Another Location

Airport or City:

Trip Planner

Search our weather history database for the weather conditions in past years. The results will help you decide how hot, cold, wet, or windy it might be!

Date:

Astronomy

Jan. 25, 2013 Rise Set
Actual Time 7:21 AM EST 5:54 PM EST
Civil Twilight 6:55 AM EST 6:20 PM EST
Nautical Twilight 6:26 AM EST 6:49 PM EST
Astronomical Twilight 5:57 AM EST 7:18 PM EST
Moon 4:50 PM EST (1/25) 5:59 AM EST (1/25)
Length of Visible Light 11h 24m
Length of Day
10h 33m
Waxing Gibbous, 98% of the Moon is Illuminated
Jan 25
Waxing Gibbous
Jan 26
Full
Feb 3
Last Quarter
Feb 10
New
Feb 17
First Quarter

Hourly Weather History & Observations

Time (EST) Temp. Dew Point Humidity Pressure Visibility Wind Dir Wind Speed Gust Speed Precip Events Conditions
12:53 AM 53.1 °F 46.0 °F 77% 30.33 in 10.0 mi NE 18.4 mph 25.3 mph N/A   Overcast
1:53 AM 53.1 °F 46.0 °F 77% 30.33 in 10.0 mi NE 11.5 mph 18.4 mph N/A   Overcast
2:53 AM 53.1 °F 46.9 °F 80% 30.34 in 10.0 mi NNE 16.1 mph 21.9 mph N/A   Overcast
3:53 AM 52.0 °F 46.0 °F 80% 30.35 in 10.0 mi NNE 11.5 mph - N/A   Overcast
4:53 AM 51.1 °F 45.0 °F 80% 30.35 in 10.0 mi NNE 17.3 mph 24.2 mph N/A   Overcast
5:53 AM 51.1 °F 44.1 °F 77% 30.34 in 10.0 mi NE 19.6 mph 24.2 mph N/A   Overcast
6:53 AM 50.0 °F 45.0 °F 83% 30.34 in 10.0 mi NNE 11.5 mph - N/A   Mostly Cloudy
7:24 AM 50.0 °F 46.4 °F 87% 30.35 in 10.0 mi NE 9.2 mph - N/A   Mostly Cloudy
7:53 AM 46.9 °F 43.0 °F 86% 30.35 in 10.0 mi North 8.1 mph - N/A   Overcast
8:23 AM 48.2 °F 44.6 °F 87% 30.34 in 10.0 mi NE 4.6 mph - N/A   Scattered Clouds
8:53 AM 52.0 °F 46.0 °F 80% 30.34 in 10.0 mi NNE 9.2 mph - N/A   Clear
9:53 AM 54.0 °F 48.0 °F 80% 30.34 in 10.0 mi North 11.5 mph - N/A   Clear
10:53 AM 54.0 °F 44.1 °F 69% 30.35 in 10.0 mi North 12.7 mph - N/A   Clear
11:53 AM 55.9 °F 44.1 °F 64% 30.31 in 10.0 mi North 4.6 mph - N/A   Clear
12:53 PM 57.9 °F 46.0 °F 65% 30.25 in 10.0 mi NNW 5.8 mph - N/A   Clear
1:53 PM 59.0 °F 46.9 °F 64% 30.23 in 10.0 mi East 6.9 mph - N/A   Clear
2:53 PM 57.0 °F 48.0 °F 72% 30.20 in 10.0 mi East 6.9 mph - N/A   Clear
3:53 PM 57.9 °F 48.9 °F 72% 30.19 in 10.0 mi East 4.6 mph - N/A   Clear
4:53 PM 55.0 °F 48.9 °F 80% 30.18 in 10.0 mi ESE 6.9 mph - N/A   Clear
5:53 PM 54.0 °F 50.0 °F 86% 30.19 in 10.0 mi ENE 4.6 mph - N/A   Clear
6:53 PM 53.1 °F 50.0 °F 89% 30.19 in 10.0 mi Calm Calm - N/A   Clear
7:53 PM 54.0 °F 51.1 °F 90% 30.19 in 10.0 mi Calm Calm - N/A   Clear
8:53 PM 54.0 °F 52.0 °F 93% 30.18 in 10.0 mi Calm Calm - N/A   Clear
9:53 PM 52.0 °F 50.0 °F 93% 30.18 in 8.0 mi Calm Calm - N/A   Clear
10:53 PM 51.1 °F 48.9 °F 92% 30.20 in 7.0 mi Calm Calm - N/A   Clear
11:53 PM 50.0 °F 48.0 °F 93% 30.20 in 7.0 mi Calm Calm - N/A   Clear